GW1675 Weather Reports


time (UTC)temp
C
wind
direction
speed
KPH
gust
KPH
rain 1hr
cm
rain 24hr
cm
rain mn
cm
humidity
%
barometer
mb
20260902014556 23 135 8.0 12.9 0.00 0.00 0.00 63 1019.3
20260902013052 23 135 9.7 14.5 0.00 0.00 0.00 63 1019.4
20260902011559 23 136 9.7 19.3 0.00 0.00 0.00 63 1019.7
20260902010057 23 139 8.0 14.5 0.00 0.00 0.00 63 1019.5
20260902004557 23 139 8.0 14.5 0.00 0.00 0.00 63 1019.8
20260902003104 23 141 4.8 16.1 0.00 0.00 0.00 63 1019.9
20260902001558 23 141 8.0 11.3 0.00 0.00 0.00 63 1020.1
20260902000051 23 142 8.0 11.3 0.00 0.00 0.00 63 1020.2
20260901234610 23 142 6.4 11.3 0.00 0.00 0.00 63 1020.3
20260901233101 23 142 4.8 9.7 0.00 0.00 0.00 63 1020.2
20260901231558 23 142 6.4 11.3 0.00 0.00 0.00 63 1020.2
20260901230056 23 142 6.4 11.3 0.00 0.00 0.00 63 1020.0
20260901224549 23 142 3.2 6.4 0.00 0.00 0.00 63 1020.1
20260901223058 22 0 0.0 0.0 0.00 0.00 0.00 63 1020.3
20260901221557 23 0 0.0 1.6 0.00 0.00 0.00 63 1020.4
20260901220114 23 0 0.0 0.0 0.00 0.00 0.00 64 1020.3
20260901214601 24 0 0.0 0.0 0.00 0.00 0.00 64 1020.5
20260901213057 25 0 0.0 1.6 0.00 0.00 0.00 64 1020.5
20260901211557 25 0 0.0 1.6 0.00 0.00 0.00 64 1020.4
20260901210055 25 0 1.6 9.7 0.00 0.00 0.00 64 1020.3
20260901204553 24 142 0.0 1.6 0.00 0.00 0.00 64 1019.9
20260901203103 25 0 0.0 0.0 0.00 0.00 0.00 64 1019.7
20260901201601 25 0 0.0 4.8 0.00 0.00 0.00 64 1019.5
20260901200055 26 142 0.0 1.6 0.00 0.00 0.00 64 1018.9
20260901194601 26 0 0.0 0.0 0.00 0.00 0.00 65 1018.5
20260901193102 26 142 0.0 4.8 0.00 0.00 0.00 65 1018.3
20260901191557 27 142 3.2 6.4 0.00 0.00 0.00 65 1018.1
20260901190054 27 142 3.2 4.8 0.00 0.00 0.00 65 1017.9
20260901184558 28 142 3.2 9.7 0.00 0.00 0.00 66 1017.8
20260901183058 28 142 6.4 11.3 0.00 0.00 0.00 66 1017.8
20260901181603 28 142 6.4 12.9 0.00 0.00 0.00 66 1017.8
20260901180058 29 142 8.0 14.5 0.00 0.00 0.00 66 1017.8
20260901174554 30 142 4.8 11.3 0.00 0.00 0.00 66 1017.9
20260901173051 30 142 8.0 11.3 0.00 0.00 0.00 66 1017.8
20260901171557 30 142 6.4 12.9 0.00 0.00 0.00 67 1017.9
20260901170116 30 142 4.8 12.9 0.00 0.00 0.00 67 1018.0
20260901164554 30 142 8.0 16.1 0.00 0.00 0.00 67 1018.0
20260901163051 30 142 11.3 17.7 0.00 0.00 0.00 67 1018.0
20260901161604 30 142 6.4 14.5 0.00 0.00 0.00 67 1018.1
20260901160056 29 141 9.7 19.3 0.00 0.00 0.00 67 1018.3
20260901154602 29 139 6.4 19.3 0.00 0.00 0.00 67 1018.4
20260901153053 29 135 8.0 17.7 0.00 0.00 0.00 67 1018.5
20260901151559 28 134 11.3 19.3 0.00 0.00 0.00 67 1018.6
20260901150106 28 131 8.0 19.3 0.00 0.00 0.00 67 1018.5
20260901144557 28 129 9.7 16.1 0.00 0.00 0.00 67 1018.4
20260901143100 28 129 8.0 14.5 0.00 0.00 0.00 67 1018.5
20260901141556 28 129 8.0 17.7 0.00 0.00 0.00 67 1018.6
20260901140105 28 129 11.3 16.1 0.00 0.00 0.00 67 1018.8
20260901134553 28 129 6.4 16.1 0.00 0.00 0.00 67 1018.9
20260901133050 28 129 6.4 16.1 0.00 0.00 0.00 67 1019.2
20260901131553 27 129 8.0 12.9 0.00 0.00 0.00 67 1019.1
20260901130053 27 129 8.0 16.1 0.00 0.00 0.00 66 1019.3
20260901124549 26 129 8.0 12.9 0.00 0.00 0.00 66 1019.4
20260901123108 25 129 8.0 16.1 0.00 0.00 0.00 66 1019.4
20260901121605 25 129 9.7 16.1 0.00 0.00 0.00 66 1019.5
20260901120059 25 129 12.9 19.3 0.00 0.00 0.00 66 1019.6
20260901114558 25 103 9.7 22.5 0.00 0.00 0.00 66 1019.7
20260901113110 26 82 8.0 19.3 0.00 0.00 0.00 66 1020.0
20260901111559 26 80 8.0 16.1 0.00 0.00 0.00 66 1019.9
20260901110100 28 79 4.8 16.1 0.00 0.00 0.00 67 1019.9
20260901104557 27 79 3.2 11.3 0.00 0.00 0.00 67 1019.8
20260901103052 27 79 9.7 20.9 0.00 0.00 0.00 67 1019.9
20260901101600 26 79 11.3 17.7 0.00 0.00 0.00 66 1019.8
20260901094554 25 79 11.3 22.5 0.00 0.00 0.00 66 1019.8
20260901093103 25 79 9.7 24.1 0.00 0.00 0.00 66 1019.6
20260901091558 24 78 14.5 25.7 0.00 0.00 0.00 66 1019.5
20260901090056 24 77 14.5 30.6 0.00 0.00 0.00 66 1019.3
20260901084600 23 75 17.7 35.4 0.00 0.00 0.00 65 1019.3
20260901083048 22 113 22.5 38.6 0.00 0.00 0.00 65 1019.3
20260901081557 22 19 24.1 37.0 0.00 0.00 0.00 65 1019.1
20260901080058 22 81 16.1 37.0 0.00 0.00 0.00 65 1019.1
20260901074604 22 31 14.5 33.8 0.00 0.00 0.00 65 1019.0
20260901073058 21 108 19.3 32.2 0.00 0.00 0.00 65 1018.9
20260901071557 21 102 19.3 30.6 0.00 0.00 0.00 65 1018.8
20260901070058 21 84 19.3 32.2 0.00 0.00 0.00 65 1018.6
20260901064552 20 78 16.1 30.6 0.00 0.00 0.00 64 1018.6
20260901063107 20 78 16.1 32.2 0.00 0.00 0.00 64 1018.5
20260901061557 20 75 16.1 35.4 0.00 0.00 0.00 64 1018.4
20260901060057 20 80 16.1 30.6 0.00 0.00 0.00 64 1018.5
20260901054554 20 84 12.9 32.2 0.00 0.00 0.00 64 1018.3
20260901053055 20 82 11.3 27.4 0.00 0.00 0.00 64 1018.3
20260901051614 20 82 11.3 24.1 0.00 0.00 0.00 64 1018.3
20260901050057 20 82 12.9 25.7 0.00 0.00 0.00 64 1018.5
20260901044552 20 81 12.9 25.7 0.00 0.00 0.00 64 1018.3
20260901043059 19 81 12.9 20.9 0.00 0.00 0.00 64 1018.3
20260901041555 19 81 4.8 16.1 0.00 0.00 0.00 64 1018.3
20260901040055 20 81 11.3 22.5 0.00 0.00 0.00 64 1018.4
20260901034609 20 81 9.7 17.7 0.00 0.00 0.00 64 1018.2
20260901033113 21 81 12.9 24.1 0.00 0.00 0.00 64 1018.3
20260901031603 21 81 14.5 25.7 0.00 0.00 0.00 65 1018.3
20260901030057 21 80 12.9 24.1 0.00 0.00 0.00 65 1018.2
20260901024555 21 79 12.9 24.1 0.00 0.00 0.00 64 1018.3
20260901023059 21 79 12.9 27.4 0.00 0.00 0.00 65 1018.3
20260901021559 21 78 14.5 25.7 0.00 0.00 0.00 65 1018.3
20260901020053 21 77 11.3 24.1 0.00 0.00 0.00 65 1018.4